This demonstration page uses our WeatherBlox Daily Observations layout. Learn more.

40.92945, -100.16068

Hourly Observations for January 1, 2020

Temp ( °F °C ) Dew Point ( °F °C ) Humidity (%) Winds ( mph kmh ) Pressure ( in mb ) Visibility ( mi km ) Precip ( " mm )
12:15 am 00:15 Clear 18 -7.6 13 -10.5 80 80 NNW 7 11 29.94 1014 10 16.0934 0 0
12:35 am 00:35 Clear 13 -10.7 10 -12 90 90 NNW 6 9 29.96 1014 10 16.0934 0 0
12:55 am 00:55 Clear 11 -11.7 9 -13 90 90 NW 3 6 29.96 1014 10 16.0934 0 0
1:15 am 01:15 Clear 13 -10.7 11 -11.8 92 92 W 6 9 29.93 1013 10 16.0934 0 0
1:35 am 01:35 Clear 13 -10.7 10 -12 90 90 WNW 8 13 29.92 1013 10 16.0934 0 0
1:55 am 01:55 Clear 12 -11.3 9 -12.7 90 90 Calm 29.91 1013 10 16.0934 0 0
2:15 am 02:15 Clear 14 -10.1 11 -11.5 90 90 WSW 3 6 29.9 1013 10 16.0934 0 0
2:35 am 02:35 Clear 12 -10.9 10 -12.5 88 88 NW 3 6 29.91 1013 10 16.0934 0 0
2:55 am 02:55 Clear 13 -10.5 10 -12.3 87 87 Calm 29.89 1012 10 16.0934 0 0
3:15 am 03:15 Clear 13 -10.8 10 -12.3 89 89 Calm 29.89 1012 10 16.0934 0 0
3:35 am 03:35 Clear 12 -10.9 9 -12.7 87 87 Calm 29.88 1012 10 16.0934 0 0
3:55 am 03:55 Clear 13 -10.7 10 -12.2 89 89 Calm 29.87 1011 10 16.0934 0 0
4:15 am 04:15 Clear 11 -11.6 8 -13.1 89 89 Calm 29.86 1011 10 16.0934 0 0
4:35 am 04:35 Clear 13 -10.7 10 -12.1 90 90 SSE 3 6 29.83 1010 10 16.0934 0 0
4:55 am 04:55 Clear 13 -10.6 10 -12 90 90 Calm 29.81 1010 10 16.0934 0 0
5:15 am 05:15 Clear 11 -11.4 9 -12.6 91 91 Calm 29.8 1009 10 16.0934 0 0
5:35 am 05:35 Clear 12 -11.2 9 -12.6 90 90 Calm 29.8 1009 10 16.0934 0 0
5:55 am 05:55 Clear 11 -11.5 9 -12.7 91 91 Calm 29.78 1009 10 16.0934 0 0
6:15 am 06:15 Clear 12 -11 10 -12.5 89 89 Calm 29.77 1008 10 16.0934 0 0
6:35 am 06:35 Clear 13 -10.5 11 -11.7 91 91 Calm 29.75 1008 10 16.0934 0 0
6:55 am 06:55 Clear 13 -10.3 11 -11.6 90 90 N 3 6 29.76 1008 10 16.0934 0 0
7:15 am 07:15 Clear 13 -10.7 10 -12.2 89 89 N 3 6 29.76 1008 10 16.0934 0 0
7:35 am 07:35 Clear 13 -10.3 11 -11.6 90 90 N 6 9 29.75 1007 10 16.0934 0 0
7:55 am 07:55 Clear 13 -10.7 10 -12.1 90 90 Calm 29.74 1007 10 16.0934 0 0
8:15 am 08:15 Sunny 13 -10.7 10 -12.2 89 89 WNW 5 7 29.74 1007 10 16.0934 0 0
8:35 am 08:35 Sunny 14 -10 11 -11.5 89 89 W 5 7 29.73 1007 10 16.0934 0 0
8:55 am 08:55 Sunny 14 -9.8 11 -11.5 88 88 Calm 29.72 1006 10 16.0934 0 0
9:15 am 09:15 Sunny 16 -8.8 13 -10.7 86 86 Calm 29.7 1006 10 16.0934 0 0
9:35 am 09:35 Sunny 18 -8 14 -9.9 86 86 Calm 29.7 1006 10 16.0934 0 0
9:55 am 09:55 Sunny 19 -7.1 15 -9.4 84 84 Calm 29.68 1005 10 16.0934 0 0
10:15 am 10:15 Sunny 20 -6.5 16 -8.7 85 85 Calm 29.68 1005 10 16.0934 0 0
10:35 am 10:35 Sunny 22 -5.5 17 -8.5 80 80 Calm 29.66 1004 10 16.0934 0 0
10:55 am 10:55 Sunny 25 -4.1 19 -7.4 78 78 Calm 29.64 1004 10 16.0934 0 0
11:15 am 11:15 Sunny 28 -2.5 21 -6 77 77 Calm 29.61 1003 10 16.0934 0 0
11:35 am 11:35 Sunny 29 -1.6 23 -5.1 77 77 Calm 29.59 1002 10 16.0934 0 0
11:55 am 11:55 Sunny 31 -0.6 25 -4.1 77 77 Calm 29.56 1001 10 16.0934 0 0
12:15 pm 12:15 Sunny 32 0 25 -3.8 76 76 Calm 29.55 1001 10 16.0934 0 0
12:35 pm 12:35 Sunny 35 1.4 26 -3.4 71 71 Calm 29.51 999 10 16.0934 0 0
12:55 pm 12:55 Sunny 36 2.1 27 -2.6 71 71 W 5 7 29.49 999 10 16.0934 0 0
1:15 pm 13:15 Sunny 38 3.1 28 -2.5 67 67 W 5 7 29.48 998 10 16.0934 0 0
1:35 pm 13:35 Sunny 38 3.3 28 -2.4 67 67 W 8 13 29.47 998 10 16.0934 0 0
1:55 pm 13:55 Sunny 39 3.7 27 -2.7 63 63 W 6 9 29.46 998 10 16.0934 0 0
2:15 pm 14:15 Sunny 39 4 28 -2.5 63 63 W 7 11 29.45 997 10 16.0934 0 0
2:35 pm 14:35 Sunny 40 4.5 28 -2.3 62 62 W 13 20 29.44 997 10 16.0934 0 0
2:55 pm 14:55 Sunny 41 5 27 -2.6 58 58 WSW 10 17 29.45 997 10 16.0934 0 0
3:15 pm 15:15 Partly Cloudy 42 5.4 28 -2.4 58 58 WSW 10 17 29.44 997 10 16.0934 0 0
3:35 pm 15:35 Mostly Cloudy 42 5.4 28 -2.5 57 57 WSW 9 15 29.44 997 10 16.0934 0 0
3:55 pm 15:55 Partly Cloudy 39 3.8 29 -1.6 68 68 WSW 8 13 29.46 998 10 16.0934 0 0
4:15 pm 16:15 Mostly Cloudy 38 3.6 29 -1.4 70 70 SW 6 9 29.45 997 10 16.0934 0 0
4:35 pm 16:35 Cloudy 38 3.6 29 -1.5 70 70 WSW 9 15 29.46 998 10 16.0934 0 0
4:55 pm 16:55 Cloudy 40 4.4 30 -1.3 67 67 WSW 10 17 29.45 997 10 16.0934 0 0
5:15 pm 17:15 Mostly Cloudy 40 4.2 30 -1 69 69 WSW 10 17 29.45 997 10 16.0934 0 0
5:35 pm 17:35 Partly Cloudy 39 3.7 31 -0.5 74 74 WSW 9 15 29.45 997 10 16.0934 0 0
5:55 pm 17:55 Mostly Cloudy 38 3.5 32 0 78 78 W 9 15 29.45 997 10 16.0934 0 0
6:15 pm 18:15 Cloudy 37 3 32 0 81 81 W 10 17 29.48 998 10 16.0934 0 0
6:35 pm 18:35 Cloudy 40 4.5 33 0.7 77 77 WNW 16 26 29.46 998 10 16.0934 0 0
6:55 pm 18:55 Cloudy 39 4 34 1.1 82 82 WNW 13 20 29.47 998 10 16.0934 0 0
7:15 pm 19:15 Cloudy 38 3.5 34 1.1 84 84 W 12 19 29.47 998 10 16.0934 0 0
7:35 pm 19:35 Cloudy 38 3.1 34 1.1 87 87 WNW 8 13 29.49 998 10 16.0934 0 0
7:55 pm 19:55 Cloudy 37 3 34 1.2 88 88 WNW 6 9 29.49 999 10 16.0934 0 0
8:15 pm 20:15 Mostly Cloudy 36 2.2 34 1 92 92 WNW 8 13 29.48 998 10 16.0934 0 0
8:35 pm 20:35 Partly Cloudy 35 1.6 33 0.8 94 94 WNW 8 13 29.49 999 10 16.0934 0 0
8:55 pm 20:55 Clear 35 1.5 33 0.6 94 94 W 6 9 29.49 999 10 16.0934 0 0
9:15 pm 21:15 Partly Cloudy 34 1 33 0.4 96 96 W 9 15 29.51 999 10 16.0934 0 0
9:35 pm 21:35 Cloudy 35 1.8 33 0.8 93 93 W 7 11 29.5 999 10 16.0934 0 0
9:55 pm 21:55 Cloudy 37 2.6 33 0.3 85 85 W 10 17 29.5 999 10 16.0934 0 0
10:15 pm 22:15 Mostly Cloudy 36 2.4 32 0 84 84 W 7 11 29.5 999 10 16.0934 0 0
10:35 pm 22:35 Partly Cloudy 35 1.7 32 0 89 89 W 7 11 29.5 999 10 16.0934 0 0
10:55 pm 22:55 Clear 34 1 31 -0.5 90 90 W 9 15 29.51 999 10 16.0934 0 0
11:15 pm 23:15 Clear 33 0.3 31 -0.7 93 93 W 8 13 29.52 1000 10 16.0934 0 0
11:35 pm 23:35 Clear 33 0.5 30 -1 90 90 W 9 15 29.52 1000 10 16.0934 0 0
11:55 pm 23:55 Clear 32 0 30 -1.3 91 91 W 10 17 29.52 999 10 16.0934 0 0

Powered by AerisWeather